RPC2841 RPVM-RPVA

Flight info

Callsign RPC2841
Flight time 0h 32m
Altitude 19000
Route PONSO4P PONSO PONSO2R
Aircraft C700/M-SBDGHM1RWXY/LB2

Departure

Time 2026-04-30 09:21
Airport Mactan Cebu International Airport (RPVM)

Arrival

Time 2026-04-30 09:53
Airport Daniel Z. Romualdez Airport (RPVA)
Time Latitude Longitude Altitude Speed Heading
2026-04-30 09:13 10.30187 123.97722 32 ft 0 kts 116°
2026-04-30 09:14 10.30193 123.97709 32 ft 2 kts 116°
2026-04-30 09:14 10.30202 123.97695 32 ft 2 kts 134°
2026-04-30 09:14 10.30213 123.97684 32 ft 2 kts 137°
2026-04-30 09:15 10.30227 123.97678 32 ft 2 kts 202°
2026-04-30 09:15 10.30235 123.97682 32 ft 0 kts 218°
2026-04-30 09:17 10.30217 123.97665 32 ft 9 kts 225°
2026-04-30 09:17 10.30165 123.97613 32 ft 12 kts 225°
2026-04-30 09:17 10.30096 123.97544 32 ft 16 kts 224°
2026-04-30 09:17 10.30041 123.97478 32 ft 9 kts 270°
2026-04-30 09:18 10.30084 123.97428 31 ft 12 kts 314°
2026-04-30 09:18 10.30155 123.97359 29 ft 16 kts 317°
2026-04-30 09:18 10.30229 123.97280 31 ft 9 kts 315°
2026-04-30 09:18 10.30231 123.97279 31 ft 0 kts 315°
2026-04-30 09:19 10.30233 123.97277 31 ft 2 kts 316°
2026-04-30 09:19 10.30262 123.97250 32 ft 10 kts 320°
2026-04-30 09:20 10.30340 123.97258 33 ft 15 kts 45°
2026-04-30 09:20 10.30346 123.97264 33 ft 3 kts 46°
2026-04-30 09:20 10.30577 123.97502 33 ft 99 kts 45°
2026-04-30 09:20 10.31284 123.98202 112 ft 179 kts 45°
2026-04-30 09:21 10.32304 123.99252 367 ft 226 kts 44°
2026-04-30 09:21 10.33335 124.00276 1004 ft 196 kts 44°
2026-04-30 09:21 10.34014 124.01287 1462 ft 173 kts 75°
2026-04-30 09:21 10.34025 124.02640 1444 ft 216 kts 92°
2026-04-30 09:22 10.34201 124.04143 2265 ft 210 kts 69°
2026-04-30 09:22 10.34918 124.05428 2889 ft 225 kts 58°
2026-04-30 09:22 10.35798 124.06921 2796 ft 265 kts 59°
2026-04-30 09:22 10.36832 124.08612 2723 ft 297 kts 58°
2026-04-30 09:23 10.37947 124.10384 2886 ft 288 kts 58°
2026-04-30 09:23 10.38951 124.12025 3446 ft 260 kts 59°
2026-04-30 09:23 10.39887 124.13576 3813 ft 257 kts 59°
2026-04-30 09:23 10.40829 124.15124 4170 ft 258 kts 59°
2026-04-30 09:24 10.41774 124.16674 4487 ft 260 kts 59°
2026-04-30 09:24 10.42726 124.18234 4851 ft 260 kts 59°
2026-04-30 09:24 10.43681 124.19803 5158 ft 262 kts 59°
2026-04-30 09:24 10.44640 124.21377 5478 ft 263 kts 59°
2026-04-30 09:25 10.45605 124.22962 5773 ft 264 kts 59°
2026-04-30 09:25 10.46574 124.24553 6082 ft 265 kts 59°
2026-04-30 09:25 10.47548 124.26153 6371 ft 267 kts 59°
2026-04-30 09:25 10.48525 124.27758 6655 ft 267 kts 59°
2026-04-30 09:26 10.49505 124.29367 6881 ft 270 kts 59°
2026-04-30 09:26 10.50534 124.31010 6889 ft 281 kts 54°
2026-04-30 09:26 10.51652 124.32677 6888 ft 289 kts 59°
2026-04-30 09:26 10.52632 124.34487 6898 ft 294 kts 63°
2026-04-30 09:27 10.53633 124.36257 6900 ft 285 kts 59°
2026-04-30 09:27 10.54702 124.37924 6901 ft 278 kts 58°
2026-04-30 09:27 10.55723 124.39564 6900 ft 272 kts 60°
2026-04-30 09:27 10.56699 124.41190 6895 ft 267 kts 60°
2026-04-30 09:28 10.57669 124.42794 6891 ft 266 kts 59°
2026-04-30 09:28 10.58646 124.44401 6890 ft 268 kts 59°
2026-04-30 09:28 10.59626 124.46010 6887 ft 269 kts 59°
2026-04-30 09:28 10.60608 124.47626 6878 ft 269 kts 59°
2026-04-30 09:29 10.61593 124.49250 6888 ft 270 kts 59°
2026-04-30 09:29 10.62579 124.50870 6879 ft 270 kts 59°
2026-04-30 09:29 10.63564 124.52494 6881 ft 270 kts 59°
2026-04-30 09:29 10.64554 124.54122 6891 ft 269 kts 59°
2026-04-30 09:30 10.65530 124.55732 6882 ft 267 kts 59°
2026-04-30 09:30 10.66500 124.57328 6881 ft 265 kts 59°
2026-04-30 09:30 10.67467 124.58923 6883 ft 263 kts 59°
2026-04-30 09:30 10.68436 124.60518 6572 ft 265 kts 59°
2026-04-30 09:31 10.69380 124.62072 6568 ft 252 kts 59°
2026-04-30 09:31 10.70283 124.63558 6536 ft 242 kts 59°
2026-04-30 09:31 10.71150 124.64992 6487 ft 236 kts 59°
2026-04-30 09:31 10.72019 124.66424 6436 ft 240 kts 59°
2026-04-30 09:32 10.72888 124.67858 6390 ft 236 kts 59°
2026-04-30 09:32 10.73746 124.69272 6345 ft 234 kts 59°
2026-04-30 09:32 10.74603 124.70684 6291 ft 234 kts 59°
2026-04-30 09:32 10.75448 124.72079 6233 ft 230 kts 59°
2026-04-30 09:33 10.76285 124.73458 6157 ft 228 kts 59°
2026-04-30 09:33 10.77114 124.74828 6092 ft 227 kts 59°
2026-04-30 09:33 10.77941 124.76192 6024 ft 226 kts 60°
2026-04-30 09:33 10.78766 124.77555 5951 ft 227 kts 59°
2026-04-30 09:34 10.79596 124.78923 5886 ft 228 kts 60°
2026-04-30 09:34 10.80424 124.80294 5781 ft 227 kts 60°
2026-04-30 09:34 10.81246 124.81655 5716 ft 224 kts 59°
2026-04-30 09:34 10.82051 124.82973 5703 ft 213 kts 59°
2026-04-30 09:35 10.82804 124.84214 5710 ft 201 kts 59°
2026-04-30 09:35 10.83504 124.85374 5627 ft 189 kts 59°
2026-04-30 09:35 10.84186 124.86499 5514 ft 186 kts 59°
2026-04-30 09:35 10.84860 124.87616 5365 ft 185 kts 60°
2026-04-30 09:36 10.85536 124.88736 5231 ft 185 kts 59°
2026-04-30 09:36 10.86207 124.89842 5092 ft 184 kts 60°
2026-04-30 09:36 10.86880 124.90952 4873 ft 184 kts 60°
2026-04-30 09:36 10.87548 124.92060 4628 ft 184 kts 59°
2026-04-30 09:37 10.88216 124.93160 4361 ft 183 kts 59°
2026-04-30 09:37 10.88879 124.94259 4130 ft 181 kts 59°
2026-04-30 09:37 10.89539 124.95353 3918 ft 178 kts 58°
2026-04-30 09:37 10.90182 124.96409 3908 ft 175 kts 59°
2026-04-30 09:38 10.90828 124.97481 3908 ft 180 kts 59°
2026-04-30 09:38 10.91489 124.98571 3906 ft 181 kts 59°
2026-04-30 09:38 10.92187 124.99640 3904 ft 183 kts 51°
2026-04-30 09:38 10.93199 125.00432 3911 ft 186 kts 32°
2026-04-30 09:39 10.94422 125.00873 3908 ft 189 kts 12°
2026-04-30 09:39 10.95719 125.00953 3906 ft 186 kts
2026-04-30 09:39 10.97029 125.01056 3905 ft 188 kts
2026-04-30 09:39 10.98334 125.01148 3905 ft 189 kts
2026-04-30 09:40 10.99623 125.01232 3836 ft 183 kts
2026-04-30 09:40 11.00882 125.01316 3663 ft 175 kts
2026-04-30 09:40 11.02057 125.01395 3469 ft 165 kts
2026-04-30 09:40 11.03194 125.01471 3303 ft 163 kts
2026-04-30 09:41 11.04316 125.01547 3141 ft 160 kts
2026-04-30 09:41 11.05416 125.01622 2995 ft 156 kts
2026-04-30 09:41 11.06481 125.01691 2874 ft 152 kts
2026-04-30 09:41 11.07508 125.01762 2683 ft 144 kts
2026-04-30 09:42 11.08496 125.01829 2492 ft 141 kts
2026-04-30 09:42 11.09438 125.01893 2331 ft 132 kts
2026-04-30 09:42 11.10365 125.01952 2143 ft 134 kts
2026-04-30 09:42 11.10708 125.01980 2079 ft 134 kts
2026-04-30 09:43 11.10828 125.01989 2057 ft 134 kts
2026-04-30 09:43 11.11639 125.02041 1898 ft 131 kts
2026-04-30 09:43 11.12548 125.02103 1725 ft 131 kts
2026-04-30 09:43 11.13454 125.02163 1540 ft 130 kts
2026-04-30 09:44 11.14356 125.02218 1382 ft 131 kts
2026-04-30 09:44 11.15259 125.02285 1199 ft 129 kts
2026-04-30 09:44 11.16165 125.02335 1035 ft 133 kts
2026-04-30 09:44 11.17099 125.02401 858 ft 133 kts
2026-04-30 09:45 11.18006 125.02461 713 ft 129 kts
2026-04-30 09:45 11.18921 125.02526 463 ft 132 kts
2026-04-30 09:45 11.19807 125.02586 294 ft 132 kts
2026-04-30 09:45 11.20775 125.02643 238 ft 140 kts
2026-04-30 09:46 11.21568 125.02694 133 ft 131 kts
2026-04-30 09:46 11.22678 125.02772 476 ft 187 kts
2026-04-30 09:46 11.23978 125.03035 1203 ft 193 kts 34°
2026-04-30 09:46 11.24658 125.03873 1501 ft 192 kts 69°
2026-04-30 09:47 11.24814 125.04572 1785 ft 190 kts 84°
2026-04-30 09:47 11.24823 125.04784 1811 ft 193 kts 89°
2026-04-30 09:48 11.24351 125.06135 1819 ft 218 kts 124°
2026-04-30 09:48 11.23184 125.07196 1914 ft 234 kts 147°
2026-04-30 09:48 11.21622 125.07719 2103 ft 249 kts 170°
2026-04-30 09:48 11.19887 125.07582 2196 ft 248 kts 185°
2026-04-30 09:49 11.18787 125.07403 2518 ft 235 kts 186°
2026-04-30 09:49 11.17215 125.07121 2815 ft 229 kts 187°
2026-04-30 09:49 11.15615 125.06834 2677 ft 237 kts 187°
2026-04-30 09:49 11.13975 125.06548 2583 ft 240 kts 186°
2026-04-30 09:50 11.12392 125.06048 2476 ft 246 kts 210°
2026-04-30 09:50 11.11695 125.04804 2321 ft 177 kts 263°
2026-04-30 09:50 11.11934 125.03646 1672 ft 157 kts 307°
2026-04-30 09:50 11.12761 125.03075 1222 ft 138 kts 335°
2026-04-30 09:51 11.13606 125.02722 890 ft 129 kts 346°
2026-04-30 09:51 11.14489 125.02497 687 ft 132 kts 352°
2026-04-30 09:51 11.15388 125.02350 586 ft 131 kts 356°
2026-04-30 09:51 11.16276 125.02263 568 ft 127 kts 359°
2026-04-30 09:52 11.17184 125.02257 462 ft 134 kts
2026-04-30 09:52 11.18092 125.02367 379 ft 130 kts 12°
2026-04-30 09:52 11.18994 125.02494 305 ft 132 kts
2026-04-30 09:52 11.19902 125.02584 248 ft 130 kts
2026-04-30 09:53 11.20823 125.02649 156 ft 133 kts
2026-04-30 09:53 11.21736 125.02708 56 ft 132 kts
2026-04-30 09:53 11.22568 125.02761 12 ft 103 kts
2026-04-30 09:53 11.22852 125.02787 8 ft 5 kts 340°
2026-04-30 09:54 11.22849 125.02776 8 ft 3 kts 214°
2026-04-30 09:54 11.22797 125.02774 8 ft 14 kts 186°
2026-04-30 09:54 11.22719 125.02688 10 ft 19 kts 201°
2026-04-30 09:54 11.22599 125.02685 10 ft 10 kts 173°
2026-04-30 09:55 11.22582 125.02654 10 ft 6 kts 309°
2026-04-30 09:55 11.22588 125.02646 10 ft 0 kts 306°